Torna al catalogo

STARLINK-37246

AttivoComunicazioniSSO
NORAD 68607·PAYLOAD·🇺🇸 United States

Lanciato Apr 5, 2026 da Vandenberg Space Force Base

Loading…

Prossimi Passaggi (prossime 24 ore)

TLE

AggiornatoSource: CelesTrak SupGP

Epoca: Sep 14, 2026, 23:21 UTC

1 68607C 26073F   26257.97340278  .00080342  00000+0  24944-2 0  2575
2 68607  97.2851  96.1223 0001722  91.6801  47.7248 15.33392593    17

Traccia STARLINK-37246 in tempo reale con AllMySat

Download on the App Store